Contact Us:
Email: info@sawbill.com
Phone: (218)663-7150
Fax: (218)663-7980
Mail: 4620 Sawbill Trail
Box 2129
Tofte, MN 55615


Powered by
Movable Type 3.15
 
Sawbill Weather History Archives: May 2015
Current Sawbill Weather History | « April 2015 | June 2015 »


Date

High
Temperature

Low
Temperature

Barometric
Pressure

Relative
Humidity 7AM

9 AM
Temperature

Moisture

Snow

5/31/15 54 30 30.27 56% 35 0
5/30/15 54 31 30.32 69% 32 0
5/29/15 59 39 30.18 78% 39 .21"
5/28/15 64 46 30.00 82% 52 0
5/27/15 76 45 30.12 70% 46 .12"
5/26/15 72 51 30.02 87% 51 0
5/25/15 58 52 30.00 91% 53 .66"
5/24/15 74 52 30.30 74% 52 .09"
5/23/15 75 52 30.16 53% 55 0
5/22/15 65 34 30.18 44% 52 0
5/21/15 60 33 30.18 61% 34 0
5/20/15 62 38 30.02 49% 45 0
5/19/15 51 31 30.16 62% 38 0
5/18/15 46 30 30.18 73% 31 .22"
5/17/15 62 44 29.86 83% 44 .23"
5/16/15 65 39 29.98 92% 55 .06"
5/15/15 53 39 30.04 80% 39 0
5/14/15 55 42 30.02 91% 43 .21"
5/13/15 51 32 30.26 57% 42 0
5/12/15 41 29 30.36 85% 32 .03"
5/11/15 42 33 30.00 98% 33 .29" .25"
5/10/15 53 37 29.98 98% 37 .79"
5/9/15 48 34 30.29 62% 37 0
5/8/15 52 41 30.18 63% 42 0
5/7/15 69 44 29.96 82% 44 .22"
5/6/15 62 40 30.00 89% 56 0
5/5/15 65 34 30.16 57% 41 0
5/4/15 64 30 29.92 63% 43 0
5/3/15 71 42 30.10 65% 45 Trace
5/2/15 69 40 29.80 83% 49 .04"
5/1/15 62 37 30.02 73% 40 0
 


Home I Trip Planning I Rentals and Outfitting I Reservations I Campgrounds I Sawbill Store I Sawbill News I Contact

© 1997 - 2017, Sawbill Canoe Outfitters, Inc. I Privacy Policy